Location: Santiago
(33.4378°S, 70.6505°W)
Time: 18:09:43
(UTC+00:00)

ISS - Pass Details

Date: 13 October 2025
Orbit: 414 x 421 km, 51.6° (Epoch: 07 November)

Event Time Altitude Azimuth Distance (km) Brightness Sun altitude
Rises 00:25:53 0° 266° (W) 2,374 1.4 -19.2°
Reaches altitude 10° 00:29:05 10° 233° (SW) 1,514 0.2 -19.8°
Maximum altitude 00:30:30 12° 208° (SSW) 1,395 -0.4 -20.1°
Drops below altitude 10° 00:31:55 10° 184° (S) 1,517 -0.6 -20.4°
Enters shadow 00:34:43 - 153° (SSE) 2,247 -0.1 -20.9°
